[[{"header":{"parameterUnit":"m.s-1","parameterCategory":1,"la1":30.2991,"la2":30.254,"lo1":-89.0895,"lo2":-89.0444,"dy":0.0017,"dx":0.0017,"nx":28,"ny":28,"refTime":"2025-11-30T09:00:00:Z","depth":0,"parameterNumber":2,"parameterNumberName":"U-component_of_WINDS"},"data":[0,0,0,0,0,0,0,0,0,0,0,0,0,0,0,0,0,0,0,0,0,0,0,0,0,0,0,0,0,0,0,0,0,0,0,0,0,0,0,0,0,0,0,0,0,0,0,0,0,0,0,0,0,0,0,0,0,0,5.4782,5.4784,0,5.5001,5.5004,5.5006,5.5004,5.5001,5.4999,5.4996,5.5221,5.523,5.5238,0,0,0,0,0,0,0,0,0,0,0,0,0,5.4362,5.4369,5.4782,5.4784,5.4787,5.5001,5.5004,5.5007,5.5005,5.5001,5.4998,5.4994,5.5218,5.5229,5.5239,0,0,0,0,0,0,0,0,0,0,0,0,0,5.4559,5.4372,5.4781,5.4812,5.4817,5.5,5.5004,5.5008,5.5006,5.5001,5.4997,5.4993,5.5215,5.5228,5.5241,5.5408,0,0,5.528,5.5286,0,0,0,0,0,0,0,0,5.4548,5.4574,5.4805,5.481,5.4816,5.4971,5.4939,5.5142,5.5007,5.4934,5.4996,5.4991,5.5142,5.516,5.5211,5.5419,5.5429,5.5282,5.529,5.5295,5.5299,0,0,0,0,0,0,0,5.4534,5.4565,5.4869,5.4808,5.4815,5.4815,5.4838,5.4977,5.5059,5.494,5.494,5.4966,5.5144,5.5199,5.5216,5.5432,5.5281,5.5293,5.5301,5.5306,5.579,5.5795,0,0,0,0,0,0,5.4514,5.4554,5.4862,5.4875,5.4668,5.4826,5.4852,5.4926,5.5058,5.5074,5.497,5.4965,5.5178,5.5201,5.5224,5.5431,5.5295,5.5307,5.5315,5.5785,5.5792,5.5797,0,0,0,0,0,0,5.4505,5.4542,5.4853,5.4715,5.4754,5.4838,5.4921,5.4932,5.4987,5.5081,5.5095,5.5011,5.5176,5.5206,5.5363,5.5439,5.5313,5.5325,5.578,5.5787,5.5794,5.5844,0,0,0,0,0,0,5.4493,5.4538,5.4602,5.4716,5.4762,5.4987,5.4925,5.494,5.5009,5.5006,5.5123,5.5138,5.5175,5.5344,5.5376,5.5454,5.5335,5.5773,5.5783,5.5792,5.5836,5.5853,5.5867,0,0,0,0,0,5.4478,5.4608,5.4606,5.4643,5.4844,5.4992,5.5018,5.5057,5.5015,5.5081,5.5142,5.5134,5.5425,5.536,5.5396,5.548,5.5769,5.578,5.5791,5.583,5.585,5.5866,0,0,0,0,0,0,5.45,5.4623,5.4622,5.4792,5.4882,5.4991,5.5075,5.5077,5.518,5.5173,5.5217,5.5244,5.5401,5.5456,5.5381,5.565,5.5592,5.5611,5.5608,5.5628,5.5643,5.5627,5.5346,0,0,0,0,0,5.4525,5.4635,5.4736,5.4877,5.4921,5.4991,5.5057,5.508,5.5174,5.5212,5.5283,5.5376,5.5488,5.5561,5.5669,5.5844,5.587,5.592,5.5935,5.5947,5.5963,5.6061,5.6085,5.5834,5.5834,5.5834,0,0,5.4577,5.4658,5.4724,5.4883,5.4955,5.5069,5.5022,5.5144,5.5229,5.523,5.5383,5.5439,5.5545,5.5712,5.579,5.5763,5.6038,5.5961,5.597,5.598,5.6075,5.6099,5.612,5.5842,5.584,5.5839,0,0,5.4731,5.4802,5.4928,5.5001,5.5111,5.5156,5.5186,5.5296,5.5334,5.5488,5.5492,5.5593,5.5786,5.5861,5.5925,5.6109,5.6106,5.6143,5.6222,5.6317,5.6337,5.6355,5.6422,5.6445,5.6159,5.6159,5.6159,0,5.4782,5.4953,5.4992,5.5115,5.5185,5.5192,5.532,5.5389,5.5529,5.5577,5.5545,5.5788,5.586,5.6045,5.609,5.6141,5.6178,5.613,5.6331,5.6349,5.6366,5.643,5.6455,5.6163,5.6162,5.6162,5.6161,0,5.5011,5.5129,5.5218,5.5353,5.5433,5.5558,5.5617,5.5693,5.5709,5.5758,5.5916,5.6003,5.6129,5.6175,5.6192,5.6364,5.6344,5.6321,5.6264,5.6393,5.6454,5.6479,5.6168,5.6167,5.6165,5.6165,0,0,5.5185,5.5341,5.5372,5.5434,5.5556,5.5649,5.5774,5.5899,5.5964,5.606,5.6167,5.633,5.631,5.6383,5.6408,5.6492,5.6633,5.6459,5.6462,5.6489,5.683,5.6847,5.6874,5.6632,5.6637,5.6641,5.6821,0,5.5352,5.5575,5.5615,5.5809,5.592,5.5929,5.6038,5.6125,5.6175,5.6276,5.6331,5.6446,5.641,5.6454,5.6537,5.6598,5.6702,5.6586,5.6733,5.6738,5.6707,5.6906,5.6924,5.709,5.6845,5.6849,5.6852,0,5.5577,5.5679,5.5885,5.5994,5.6042,5.6139,5.6257,5.6354,5.6453,5.6483,5.6565,5.6581,5.6712,5.6649,5.6831,5.6751,5.6814,5.6853,5.686,5.6876,5.6803,5.6928,5.7144,5.7169,5.689,5.6887,5.6884,0,5.5684,5.5874,5.6022,5.6074,5.6204,5.6273,5.633,5.6425,5.6498,5.6601,5.6648,5.6765,5.6829,5.692,5.6967,5.6916,5.7147,5.7087,5.7177,5.7176,5.7225,5.7221,5.7455,5.7264,5.7264,5.7263,5.7263,0,5.5868,5.5994,5.6072,5.6163,5.6305,5.635,5.6489,5.6545,5.663,5.6733,5.6747,5.6843,5.69,5.7005,5.7043,5.7189,5.7218,5.7246,5.7255,5.7246,5.7242,5.7288,5.7278,5.727,5.7269,5.7267,5.7266,0,5.6012,5.6069,5.6232,5.6341,5.6372,5.6472,5.6566,5.6656,5.6705,5.6835,5.6868,5.6946,5.707,5.7126,5.7279,5.7305,5.7472,5.7472,5.7438,5.7442,5.7529,5.752,5.78,5.784,5.7622,5.7624,5.7625,0,5.6125,5.6223,5.6343,5.6413,5.6472,5.6585,5.6659,5.6707,5.6784,5.6905,5.698,5.7105,5.7207,5.7405,5.7476,5.7593,5.7597,5.7687,5.7615,5.7603,5.76,5.7594,5.7604,5.77,5.7702,5.7704,5.7706,0,5.6322,5.6345,5.6452,5.6569,5.6657,5.6751,5.6844,5.69,5.6963,5.7049,5.7176,5.7255,5.7412,5.7536,5.7659,5.7718,5.7723,5.7728,5.7755,5.7747,5.7723,5.7738,5.7475,5.7721,5.772,5.7718,5.7718,5.7717,5.6455,5.6542,5.6641,5.6759,5.6834,5.692,5.701,5.7071,5.7178,5.7309,5.7331,5.7467,5.7565,5.773,5.7794,5.7901,5.788,5.7919,5.7929,5.7938,5.7944,5.7706,5.7924,5.7923,5.7923,5.7923,5.7922,0,5.6653,5.6717,5.6825,5.6954,5.7048,5.7044,5.7146,5.7225,5.7344,5.7435,5.7536,5.7682,5.7803,5.7883,5.8005,5.8076,5.8081,5.8106,5.8102,5.8116,5.7955,5.792,5.81,5.81,5.81,5.81,5.81,5.81,5.6767,5.6915,5.695,5.7136,5.7199,5.7332,5.7391,5.7472,5.7544,5.7708,5.7808,5.7859,5.7946,5.8075,5.8186,5.8206,5.8251,5.8277,5.8297,5.8146,5.8127,5.8109,5.8077,5.8286,5.8287,5.8449,5.845,5.8451]},{"header":{"parameterUnit":"m.s-1","parameterCategory":1,"la1":30.2991,"la2":30.254,"lo1":-89.0895,"lo2":-89.0444,"dy":0.0017,"dx":0.0017,"nx":28,"ny":28,"refTime":"2025-11-30T09:00:00:Z","depth":0,"parameterNumber":3,"parameterNumberName":"V-component_of_WINDS"},"data":[0,0,0,0,0,0,0,0,0,0,0,0,0,0,0,0,0,0,0,0,0,0,0,0,0,0,0,0,0,0,0,0,0,0,0,0,0,0,0,0,0,0,0,0,0,0,0,0,0,0,0,0,0,0,0,0,0,0,-1.7307,-1.7305,0,-1.7031,-1.7027,-1.7024,-1.6895,-1.6895,-1.6895,-1.6896,-1.6598,-1.659,-1.6582,0,0,0,0,0,0,0,0,0,0,0,0,0,-1.7713,-1.7707,-1.7308,-1.7304,-1.7301,-1.7031,-1.7027,-1.7023,-1.6895,-1.6895,-1.6895,-1.6896,-1.6601,-1.6591,-1.6582,0,0,0,0,0,0,0,0,0,0,0,0,0,-1.7497,-1.7705,-1.7308,-1.7205,-1.7192,-1.7032,-1.7027,-1.7022,-1.6895,-1.6895,-1.6895,-1.6896,-1.6604,-1.6592,-1.658,-1.6498,0,0,-1.6543,-1.6538,0,0,0,0,0,0,0,0,-1.7509,-1.7482,-1.7223,-1.7211,-1.7198,-1.6998,-1.7061,-1.6846,-1.6895,-1.7007,-1.6896,-1.6896,-1.673,-1.6708,-1.6654,-1.6484,-1.6471,-1.6542,-1.6535,-1.6529,-1.6526,0,0,0,0,0,0,0,-1.7524,-1.7493,-1.7198,-1.722,-1.7204,-1.7168,-1.7137,-1.702,-1.687,-1.6998,-1.6988,-1.6957,-1.6723,-1.6667,-1.6647,-1.6467,-1.6542,-1.6532,-1.6524,-1.6519,-1.6215,-1.6214,0,0,0,0,0,0,-1.7558,-1.7507,-1.7206,-1.7189,-1.7358,-1.716,-1.7126,-1.7061,-1.6871,-1.6842,-1.6957,-1.6952,-1.6687,-1.6661,-1.6636,-1.6526,-1.6529,-1.6518,-1.6511,-1.6216,-1.6215,-1.6214,0,0,0,0,0,0,-1.7567,-1.7533,-1.7218,-1.7345,-1.7302,-1.7153,-1.7081,-1.7056,-1.6999,-1.6841,-1.6812,-1.6928,-1.6686,-1.6653,-1.6534,-1.6514,-1.6513,-1.6501,-1.6216,-1.6215,-1.6214,-1.6309,0,0,0,0,0,0,-1.758,-1.7537,-1.7507,-1.7346,-1.7296,-1.7125,-1.708,-1.705,-1.698,-1.6971,-1.6805,-1.6778,-1.6684,-1.6553,-1.6522,-1.6498,-1.6492,-1.6217,-1.6216,-1.6215,-1.6306,-1.6311,-1.6315,0,0,0,0,0,-1.7595,-1.7541,-1.7506,-1.747,-1.7256,-1.7124,-1.7095,-1.6992,-1.6979,-1.6946,-1.6844,-1.6783,-1.6522,-1.6542,-1.6506,-1.6478,-1.6218,-1.6216,-1.6215,-1.6305,-1.631,-1.6314,0,0,0,0,0,0,-1.7699,-1.7518,-1.7477,-1.7371,-1.7265,-1.7103,-1.7057,-1.7001,-1.6892,-1.6888,-1.676,-1.6724,-1.6616,-1.6534,-1.656,-1.6388,-1.6364,-1.6355,-1.6445,-1.6449,-1.6453,-1.6474,-1.6482,0,0,0,0,0,-1.7711,-1.7622,-1.7467,-1.7389,-1.7338,-1.7208,-1.7146,-1.7077,-1.6959,-1.6912,-1.6801,-1.6686,-1.6578,-1.6509,-1.64,-1.6295,-1.6255,-1.6257,-1.6261,-1.6265,-1.6258,-1.6195,-1.6194,-1.6208,-1.6208,-1.6208,0,0,-1.7731,-1.7622,-1.7573,-1.7407,-1.7316,-1.7224,-1.717,-1.7075,-1.7004,-1.6895,-1.6778,-1.6693,-1.6556,-1.6444,-1.6389,-1.6372,-1.6246,-1.6263,-1.6268,-1.6258,-1.6194,-1.6192,-1.6191,-1.6207,-1.6207,-1.6207,0,0,-1.7723,-1.7632,-1.7557,-1.7469,-1.7334,-1.7248,-1.723,-1.7077,-1.7018,-1.69,-1.6817,-1.6728,-1.6545,-1.6451,-1.6379,-1.6338,-1.6277,-1.6306,-1.6326,-1.6266,-1.6265,-1.6263,-1.6247,-1.6243,-1.63,-1.63,-1.63,0,-1.7765,-1.7627,-1.7524,-1.7435,-1.7363,-1.7266,-1.7187,-1.7104,-1.694,-1.6891,-1.6876,-1.6646,-1.6546,-1.641,-1.6401,-1.6346,-1.6319,-1.6323,-1.6275,-1.6272,-1.6268,-1.6252,-1.6246,-1.6304,-1.6304,-1.6303,-1.6303,0,-1.7685,-1.7591,-1.7545,-1.7394,-1.7317,-1.7233,-1.7115,-1.7048,-1.6986,-1.6901,-1.678,-1.6658,-1.6524,-1.6487,-1.6423,-1.6342,-1.6336,-1.63,-1.6273,-1.6273,-1.6255,-1.6248,-1.6311,-1.6309,-1.6308,-1.6307,0,0,-1.7732,-1.7528,-1.7513,-1.7443,-1.7289,-1.7211,-1.7122,-1.6996,-1.6941,-1.6831,-1.6751,-1.6599,-1.6566,-1.6484,-1.6409,-1.6357,-1.6331,-1.6326,-1.6321,-1.633,-1.6233,-1.6261,-1.6255,-1.6291,-1.629,-1.6288,-1.6244,0,-1.7701,-1.7542,-1.7448,-1.7325,-1.7236,-1.7143,-1.7065,-1.696,-1.6878,-1.6787,-1.6694,-1.6589,-1.6553,-1.6504,-1.6448,-1.6347,-1.6309,-1.6348,-1.6212,-1.6208,-1.6248,-1.6246,-1.6274,-1.6238,-1.6236,-1.6235,-1.6234,0,-1.7644,-1.7541,-1.7412,-1.7269,-1.7227,-1.7159,-1.7036,-1.6952,-1.6829,-1.6773,-1.6685,-1.661,-1.6508,-1.6492,-1.6349,-1.6378,-1.6316,-1.6258,-1.6254,-1.6235,-1.622,-1.6226,-1.6224,-1.6219,-1.6222,-1.6223,-1.6224,0,-1.7691,-1.7519,-1.742,-1.7363,-1.7193,-1.7148,-1.7074,-1.6953,-1.6883,-1.6774,-1.6727,-1.6606,-1.6539,-1.6446,-1.6339,-1.6337,-1.6206,-1.6181,-1.6153,-1.6156,-1.6128,-1.6131,-1.6116,-1.6092,-1.6092,-1.6092,-1.6092,0,-1.7665,-1.7589,-1.7439,-1.7377,-1.7289,-1.718,-1.7093,-1.7012,-1.6905,-1.6823,-1.6734,-1.6659,-1.6524,-1.643,-1.6345,-1.6239,-1.6209,-1.6159,-1.6137,-1.6166,-1.6172,-1.6122,-1.6121,-1.609,-1.609,-1.6091,-1.6091,0,-1.7702,-1.7598,-1.7484,-1.7334,-1.7295,-1.7236,-1.7106,-1.7041,-1.6956,-1.6854,-1.6823,-1.6688,-1.6573,-1.6459,-1.6303,-1.6246,-1.6141,-1.6112,-1.6184,-1.6171,-1.615,-1.6153,-1.61,-1.6087,-1.6075,-1.6075,-1.6075,0,-1.7692,-1.7632,-1.7478,-1.742,-1.735,-1.7256,-1.7186,-1.7075,-1.7005,-1.6863,-1.6814,-1.6695,-1.6593,-1.6414,-1.6299,-1.6179,-1.6145,-1.6135,-1.6126,-1.6158,-1.6143,-1.6148,-1.6141,-1.6138,-1.6139,-1.614,-1.614,0,-1.7685,-1.7638,-1.7543,-1.743,-1.735,-1.7255,-1.7155,-1.7111,-1.6981,-1.6906,-1.6791,-1.6713,-1.6557,-1.6438,-1.6305,-1.6224,-1.6159,-1.6145,-1.6132,-1.616,-1.6204,-1.6179,-1.6193,-1.6146,-1.6145,-1.6145,-1.6144,-1.6144,-1.7697,-1.764,-1.7523,-1.742,-1.7335,-1.7245,-1.7178,-1.7086,-1.699,-1.6857,-1.6797,-1.6681,-1.6559,-1.6375,-1.6296,-1.6201,-1.6183,-1.6165,-1.6159,-1.6156,-1.6163,-1.6222,-1.6176,-1.6176,-1.6175,-1.6175,-1.6175,0,-1.7685,-1.7607,-1.7513,-1.738,-1.7298,-1.7251,-1.7138,-1.7072,-1.6973,-1.6867,-1.6771,-1.6638,-1.6522,-1.64,-1.6277,-1.6224,-1.6191,-1.6195,-1.6197,-1.6179,-1.6186,-1.6209,-1.6224,-1.6224,-1.6224,-1.6224,-1.6224,-1.6224,-1.7669,-1.757,-1.7509,-1.7366,-1.7286,-1.7176,-1.7116,-1.7031,-1.6947,-1.6805,-1.671,-1.6633,-1.652,-1.6388,-1.6279,-1.6246,-1.6203,-1.6216,-1.6174,-1.6182,-1.6178,-1.6175,-1.6196,-1.6208,-1.6208,-1.6174,-1.6174,-1.6174]}]]